Chadron, NE

11:40 AM MDT on May 23, 2018 (GMT -0600)
Chadron Municipal

Weather History for KCDR - September, 2014

Change the Weather History Date:

Monday, September 1, 2014

  Actual Average Record
Temperature  
Mean Temperature 61 °F 68 °F  
Max Temperature 76 °F 85 °F 102 °F (2012)
Min Temperature 46 °F 51 °F 36 °F (1956)
Degree Days  
Heating Degree Days 4 2  
Month to date heating degree days 4 2  
Since 1 July heating degree days 18 32  
Cooling Degree Days 0 5  
Month to date cooling degree days 0 5  
Year to date cooling degree days 585 652  
Growing Degree Days 10 (Base 50)    
Moisture  
Dew Point 49 °F    
Average Humidity 69    
Maximum Humidity 100    
Minimum Humidity 38    
Precipitation  
Precipitation 0.02 in 0.05 in 0.61 in (1935)
Month to date precipitation 0.02 0.05  
Year to date precipitation 14.54 13.92  
Sea Level Pressure  
Sea Level Pressure 29.94 in    
Wind  
Wind Speed 8 mph (WSW)    
Max Wind Speed 37 mph    
Max Gust Speed 47 mph    
Visibility 10 miles    
Events Rain , Thunderstorm    
T = Trace of Precipitation, MM = Missing Value Source: NWS Daily Summary

Daily Weather History Graph

Daily Weather History Graph

Search for Another Location

Airport or City:

Astronomy

Sep. 01, 2014 Rise Set
Actual Time 6:17 AM MDT 7:26 PM MDT
Civil Twilight 5:47 AM MDT 7:55 PM MDT
Nautical Twilight 5:13 AM MDT 8:30 PM MDT
Astronomical Twilight 4:36 AM MDT 9:07 PM MDT
Moon 1:14 PM MDT (9/1) 11:19 PM MDT (9/1)
Length of Visible Light 14h 07m
Length of Day
13h 09m
Waxing Crescent, 43% of the Moon is Illuminated
Sep 1
Waxing Crescent
Sep 2
First Quarter
Sep 8
Full
Sep 15
Last Quarter
Sep 24
New

Hourly Weather History & Observations

Time (MDT) Temp. Dew Point Humidity Pressure Visibility Wind Dir Wind Speed Gust Speed Precip Events Conditions
12:53 AM 52.0 °F 50.0 °F 93% 29.91 in 10.0 mi WSW 3.5 mph - N/A   Clear
1:53 AM 51.1 °F 48.9 °F 92% 29.90 in 10.0 mi West 8.1 mph - N/A   Clear
2:53 AM 50.0 °F 48.0 °F 93% 29.92 in 10.0 mi WSW 6.9 mph - N/A   Clear
3:53 AM 48.9 °F 46.9 °F 93% 29.94 in 10.0 mi WSW 5.8 mph - N/A   Clear
4:53 AM 46.9 °F 45.0 °F 93% 29.93 in 10.0 mi WSW 8.1 mph - N/A   Clear
5:53 AM 48.0 °F 46.0 °F 93% 29.94 in 10.0 mi SW 3.5 mph - N/A   Clear
6:53 AM 48.0 °F 46.0 °F 93% 29.96 in 10.0 mi WSW 4.6 mph - N/A   Mostly Cloudy
7:53 AM 53.1 °F 50.0 °F 89% 29.96 in 10.0 mi WSW 6.9 mph - N/A   Clear
9:53 AM 66.0 °F 51.1 °F 59% 29.94 in 10.0 mi SW 10.4 mph - N/A   Clear
10:53 AM 71.1 °F 48.9 °F 45% 29.93 in 10.0 mi SW 11.5 mph - N/A   Clear
11:53 AM 72.0 °F 48.0 °F 43% 29.92 in 10.0 mi WSW 4.6 mph - N/A   Clear
12:53 PM 75.0 °F 48.0 °F 38% 29.88 in 10.0 mi West 9.2 mph - N/A   Partly Cloudy
1:53 PM 75.9 °F 48.0 °F 37% 29.86 in 10.0 mi WSW 8.1 mph - N/A   Partly Cloudy
2:26 PM 73.0 °F 48.0 °F 41% 29.89 in 10.0 mi WSW 5.8 mph - N/A Thunderstorm Partly Cloudy
2:51 PM 69.8 °F 51.8 °F 53% 29.90 in 10.0 mi West 19.6 mph 28.8 mph 0.00 in Rain , Thunderstorm Light Thunderstorms and Rain
2:53 PM 70.0 °F 48.9 °F 47% 29.88 in 10.0 mi West 23.0 mph 28.8 mph 0.00 in Rain , Thunderstorm Light Thunderstorms and Rain
3:06 PM 68.0 °F 46.0 °F 45% 29.90 in 10.0 mi West 8.1 mph - 0.00 in Rain , Thunderstorm Light Rain
3:42 PM 57.0 °F 51.1 °F 81% 29.95 in 3.0 mi NW 24.2 mph 47.2 mph 0.02 in Rain Light Rain
3:51 PM 57.2 °F 51.8 °F 82% 29.96 in 10.0 mi NNW 15.0 mph 33.4 mph 0.02 in Rain , Thunderstorm Light Rain
3:53 PM 57.0 °F 51.1 °F 81% 29.96 in 10.0 mi NNW 13.8 mph 31.1 mph 0.02 in Rain , Thunderstorm Light Rain
4:06 PM 60.1 °F 51.1 °F 72% 29.93 in 10.0 mi NNW 21.9 mph 28.8 mph 0.00 in   Partly Cloudy
4:53 PM 64.0 °F 51.1 °F 63% 29.92 in 10.0 mi East 9.2 mph - 0.00 in   Clear
5:53 PM 62.1 °F 50.0 °F 65% 29.97 in 10.0 mi NE 6.9 mph - N/A   Partly Cloudy
6:53 PM 62.1 °F 51.1 °F 67% 29.95 in 10.0 mi ENE 8.1 mph - 0.00 in Rain Light Rain
7:53 PM 57.0 °F 52.0 °F 83% 29.99 in 10.0 mi Calm Calm - 0.00 in   Clear
8:53 PM 53.1 °F 48.9 °F 86% 30.01 in 10.0 mi South 4.6 mph - N/A   Clear
9:53 PM 50.0 °F 48.0 °F 93% 30.03 in 10.0 mi WSW 6.9 mph - N/A   Clear
10:53 PM 48.9 °F 46.0 °F 90% 30.03 in 10.0 mi WSW 5.8 mph - N/A   Clear
11:53 PM 46.9 °F 46.0 °F 97% 30.03 in 10.0 mi SW 4.6 mph - N/A   Clear